Location: Unspecified
(0.0000°N, 0.0000°E)
Time: 02:12:30
(UTC+00:00)

Vanguard 2 - Pass Details

Date: 15 December 2017
Orbit: 552 x 2940 km, 32.9° (Epoch: 16 January)

Event Time Altitude Azimuth Distance (km) Brightness Sun altitude
Rises 23:53:17 0° 291° (WNW) 3,178 - -66.7°
Reaches altitude 10° 23:55:22 10° 286° (WNW) 2,436 - -66.7°
Maximum altitude 00:00:58 51° 210° (SSW) 1,379 - -66.7°
Drops below altitude 10° 00:10:12 10° 136° (SE) 3,956 - -66.4°
Exits shadow 00:10:58 - 135° (SE) 4,211 11.5 -66.4°
Sets 00:14:30 0° 132° (SE) 5,363 12.1 -66.3°
